Batman, Turkey

7:57 PM +03 on August 23, 2017 (GMT +0300)
Batman Air Base

Weather History for LTCJ - September, 2013

Change the Weather History Date:

Tuesday, September 10, 2013

  Actual Average (LTCC) Record (LTCC)
Temperature  
Mean Temperature 73 °F -  
Max Temperature 91 °F 90 °F 102 °F (2015)
Min Temperature 55 °F 61 °F 55 °F (1997)
Cooling Degree Days 8    
Growing Degree Days 23 (Base 50)    
Moisture  
Dew Point 36 °F    
Average Humidity 31    
Maximum Humidity 63    
Minimum Humidity 11    
Precipitation  
Precipitation 0.00 in - - ()
Sea Level Pressure  
Sea Level Pressure 29.91 in    
Wind  
Wind Speed 4 mph ()    
Max Wind Speed 9 mph    
Max Gust Speed -    
Averages and records for this station are not official NWS values.
T = Trace of Precipitation, MM = Missing Value Source: Averaged Metar Reports

Daily Weather History Graph

Daily Weather History Graph

Search for Another Location

Airport or City:

Trip Planner

Search our weather history database for the weather conditions in past years. The results will help you decide how hot, cold, wet, or windy it might be!

Date:

Astronomy

Sep. 10, 2013 Rise Set
Actual Time 5:53 AM EEST 6:31 PM EEST
Civil Twilight 5:26 AM EEST 6:57 PM EEST
Nautical Twilight 4:55 AM EEST 7:29 PM EEST
Astronomical Twilight 4:23 AM EEST 8:01 PM EEST
Moon 10:49 AM EEST (9/10) 9:22 PM EEST (9/10)
Length of Visible Light 13h 31m
Length of Day
12h 38m
Waxing Crescent, 25% of the Moon is Illuminated
Sep 10
Waxing Crescent
Sep 12
First Quarter
Sep 19
Full
Sep 27
Last Quarter
Oct 5
New

Hourly Weather History & Observations

Time (EEST) Temp. Dew Point Humidity Pressure Visibility Wind Dir Wind Speed Gust Speed Precip Events Conditions
12:20 AM 60.8 °F 42.8 °F 52% 29.86 in - NNE 6.9 mph - N/A   Clear
12:50 AM 62.6 °F 42.8 °F 48% 29.86 in - NE 6.9 mph - N/A   Clear
1:20 AM 62.6 °F 39.2 °F 42% 29.86 in - NE 6.9 mph - N/A   Clear
1:50 AM 60.8 °F 42.8 °F 52% 29.86 in - Variable 2.3 mph - N/A   Clear
2:20 AM 60.8 °F 46.4 °F 59% 29.89 in - Calm Calm - N/A   Clear
2:50 AM 62.6 °F 39.2 °F 42% 29.89 in - South 4.6 mph - N/A   Clear
3:20 AM 57.2 °F 41.0 °F 55% 29.89 in - Variable 1.2 mph - N/A   Clear
3:50 AM 57.2 °F 41.0 °F 55% 29.89 in - Calm Calm - N/A   Clear
4:20 AM 57.2 °F 41.0 °F 55% 29.92 in - Variable 1.2 mph - N/A   Clear
4:50 AM 59.0 °F 41.0 °F 51% 29.92 in - Variable 4.6 mph - N/A   Clear
5:20 AM 55.4 °F 41.0 °F 58% 29.92 in - Variable 2.3 mph - N/A   Clear
5:50 AM 55.4 °F 42.8 °F 63% 29.95 in - Variable 2.3 mph - N/A   Clear
6:20 AM 55.4 °F 41.0 °F 58% 29.95 in - Calm Calm - N/A   Clear
6:50 AM 59.0 °F 41.0 °F 51% 29.95 in - Calm Calm - N/A   Clear
7:20 AM 62.6 °F 41.0 °F 45% 29.95 in - Variable 1.2 mph - N/A   Clear
7:50 AM 68.0 °F 41.0 °F 37% 29.98 in - Variable 1.2 mph - N/A   Clear
8:20 AM 69.8 °F 39.2 °F 33% 29.98 in - SW 4.6 mph - N/A   Clear
8:50 AM 71.6 °F 39.2 °F 31% 29.98 in - WSW 6.9 mph - N/A   Clear
9:20 AM 73.4 °F 39.2 °F 29% 29.98 in - West 4.6 mph - N/A   Clear
9:50 AM 77.0 °F 39.2 °F 26% 29.98 in - WSW 4.6 mph - N/A   Clear
10:20 AM 78.8 °F 39.2 °F 24% 29.98 in - WSW 4.6 mph - N/A   Clear
10:50 AM 82.4 °F 39.2 °F 21% 29.95 in - Variable 4.6 mph - N/A   Clear
11:20 AM 82.4 °F 35.6 °F 19% 29.95 in - Variable 4.6 mph - N/A   Clear
11:50 AM 86.0 °F 37.4 °F 18% 29.95 in - Variable 3.5 mph - N/A   Clear
12:20 PM 87.8 °F 35.6 °F 16% 29.95 in - Variable 4.6 mph - N/A   Clear
12:50 PM 89.6 °F 32.0 °F 13% 29.92 in - Variable 4.6 mph - N/A   Clear
1:20 PM 89.6 °F 28.4 °F 11% 29.92 in - SW 4.6 mph - N/A   Clear
1:50 PM 87.8 °F 28.4 °F 12% 29.92 in - Variable 5.8 mph - N/A   Clear
2:20 PM 89.6 °F 28.4 °F 11% 29.89 in - Variable 4.6 mph - N/A   Clear
2:50 PM 89.6 °F 28.4 °F 11% 29.89 in - WSW 9.2 mph - N/A   Clear
3:20 PM 89.6 °F 28.4 °F 11% 29.89 in - Variable 4.6 mph - N/A   Clear
3:50 PM 91.4 °F 30.2 °F 11% 29.89 in - Variable 3.5 mph - N/A   Clear
4:20 PM 89.6 °F 30.2 °F 12% 29.89 in - South 5.8 mph - N/A   Clear
4:50 PM 89.6 °F 32.0 °F 13% 29.89 in - SW 4.6 mph - N/A   Clear
5:20 PM 87.8 °F 30.2 °F 13% 29.89 in - SSW 5.8 mph - N/A   Clear
5:50 PM 86.0 °F 30.2 °F 13% 29.89 in - SW 5.8 mph - N/A   Clear
6:20 PM 84.2 °F 32.0 °F 15% 29.89 in - SW 5.8 mph - N/A   Clear
6:50 PM 80.6 °F 33.8 °F 18% 29.89 in - WSW 3.5 mph - N/A   Clear
7:20 PM 77.0 °F 33.8 °F 21% 29.89 in - West 2.3 mph - N/A   Clear
7:50 PM 77.0 °F 33.8 °F 21% 29.89 in - Calm Calm - N/A   Clear
8:20 PM 71.6 °F 32.0 °F 23% 29.89 in - Variable 2.3 mph - N/A   Clear
8:50 PM 69.8 °F 32.0 °F 25% 29.89 in - Variable 2.3 mph - N/A   Clear
9:20 PM 68.0 °F 37.4 °F 33% 29.89 in - NNE 6.9 mph - N/A   Clear
9:50 PM 68.0 °F 32.0 °F 26% 29.89 in - NE 5.8 mph - N/A   Clear
10:20 PM 64.4 °F 37.4 °F 37% 29.92 in - Variable 2.3 mph - N/A   Clear
10:50 PM 62.6 °F 41.0 °F 45% 29.92 in - SW 4.6 mph - N/A   Clear
11:20 PM 64.4 °F 35.6 °F 34% 29.92 in - South 5.8 mph - N/A   Clear
11:50 PM 62.6 °F 33.8 °F 34% 29.92 in - SSW 3.5 mph - N/A   Clear